Location: *
(53.4003°S, 165.3236°W)
Time: 01:12:55
(UTC+00:00)

Cosmos 2297 Rocket - Pass Details

Date: 11 December 2023
Orbit: 838 x 844 km, 71.0° (Epoch: 24 February)

Event Time Altitude Azimuth Distance (km) Brightness Sun altitude
Exits shadow 12:59:36 - 356° (N) 2,639 4.2 -8.9°
Reaches altitude 10° 13:00:03 10° 358° (N) 2,476 4.1 -8.9°
Maximum altitude 13:05:27 46° 69° (ENE) 1,139 3.0 -8.5°
Drops below altitude 10° 13:10:54 10° 140° (SE) 2,499 6.3 -8.1°
Sets 13:13:27 0° 145° (SE) 3,439 8.0 -7.9°
